STARLINK-1788, 46689

Orbit data source: Space-Track

STARLINK-1788, 46689 is a payload satellite owned by SpaceX/Seattle (US) in LEO that was launched on Sun, 18 Oct 2020 UTC via an FALCON 9 launch vehicle from the Air Force Eastern Test Range (AFETR). Payload-class satellites include a variety of spacecraft equipped with specific instruments for various scientific and technological missions. These include communications satellites like Starlink; space stations such as the ISS; scientific satellites like the Hubble; Earth observation satellites from companies like Planet Labs, Umbra, and HawkEye 360; GPS; miniature CubeSats for education and research; and military/defense satellites.

Loading next visibility...
Identifier
46689, 2020-073V
Orbit
LEO
Country
Flag of USUS
Related business
Manufacturer
SpaceX/Seattle
Mission
Operational Commercial Communications
Bus & Motor
STARLINK, Unknown motor
Mass
260 kg wet, ~248 kg dry
Launch date (UTC)
2020-10-18 (5 years ago)
Launch vehicle
FALCON 9
Launch site
Air Force Eastern Test Range (AFETR)
Object type
Payload
Rocket body
Debris
Shape & HBR
Box + 1 Pan, 4.4 m
Radar Cross Section
13.562 m², Large (>1 m²)

Expand to show TLE details & history
Last TLE update: 21 hours ago

TLE from 21 hours ago
0 STARLINK-1788
1 46689U 20073V   25258.45796291  .00001456  00000-0  11663-3 0  9996
2 46689  53.0554 323.9219 0001461  90.4702 269.6455 15.06404606271740
Epoch: 2025-09-15T10:59Z
TLE epoch observation values (Epoch: 2025-09-15T10:59:27.995Z)
Latitude
0.00003°
Longitude
164.39294°
Altitude
548.083 km
Speed
7.589 km/s
True Right ascension
21h 35m 41s
True Declination
0° 00' 00"
Sunlit
Object was in full shadow at epoch
Visualization orbit readout
Latitude
Unknown
Longitude
Unknown
Altitude
Unknown
Speed
Unknown
Apparent Right ascension
Unknown
Apparent Declination
Unknown
Sunlit
N/A
Visualization observer readout
Local Sidereal Time
00:38:35
Azimuth
Unknown
Elevation
Unknown
Doppler factor
Unknown
Orbital elements
Apogee altitude
548.48 km
Perigee altitude
546.456 km
Semi-major axis
6,925.605 km
Eccentricity
0.00015
Inclination
53.0554°
RAAN
323.9219°
Arg. of periapsis
90.4702°
True anomaly
269.62876°
Mean anomaly
269.6455°
Eccentric anomaly
269.63713°
Mean motion
3.76579 °/min
Orbital period
95.6 mins
BSTAR
0.00011663
Loading maneuver chart data...
Computing Atmospheric mass density...

Documentation

Showing up to 5 results
|